User: anonymous   Login
Location: Caltech
(34.1382°N, 118.1253°W)
Time: 10:09:09
(UTC-07:00)
Language:

Cosmos 1937 Rocket - Orbit

View from above orbital plane
View from above orbital plane
View from above satellite
View from above satellite

Ground track
Ground track

The orbit data is extracted from the following two-line orbital elements,

1 19039U 88029B   17295.87953668 -.00000000 +00000-0 +84802-5 0  9993
2 19039 074.0488 064.2808 0024127 208.1791 299.3767 14.38378537548927
Epoch (UTC): 22 October 2017 21:06:31
Eccentricity: 0.0024127
inclination: 74.0488°
perigee height: 746 km
apogee height: 781 km
right ascension of ascending node: 64.2808°
argument of perigee: 208.1791°
revolutions per day: 14.38378537
mean anomaly at epoch: 299.3767°
orbit number at epoch: 54892

The dashed part of the orbit path shows where the satellite is in the earth's shadow,  

DLR